Starlink 5234

decayed
NORAD ID: 54197 Int'l Des: 2022-141 Owner: SPXS Country: US Constellation: starlink
LEOCIRCULAR
Gruppe

Über Starlink 5234

Beschreibung wird geladen...

Höhenverlauf

Altitude vs Time

uPlot chart will show altitude changes over time

Zweizeiliger Elementsatz

1 54197U 22141AS 24105.76553359 .11800386 12296-4 17890-2 0 9999
2 54197 53.1839 187.1990 0008271 338.7879 115.4500 16.33365307 82053
Epoch: 14. Apr. 2024 • Age: 14593 hours

Aktueller Status

Position data unavailable
Startdatum 28. Okt. 2022
Alter 3.1 years
Verglühungsdatum 15. Apr. 2024
Typ internet

Technische Details

Klassifizierung Payload
Masse 305.00 kg
Trockenmasse 290.00 kg
Gesamtmasse 305.00 kg
Länge 0.20 m
Durchmesser 2.80 m
Spannweite 9.00 m
Form Box + pan
Hersteller SPXS
Bus-Typ Starlink
Phasenstatus Unknown Transfer Status
Besitzer/Staat SPXS/US

Große Konstellationen

Loading constellations...